YAOGAN-23

Last updated on Wed Dec 11 2024 00:02:28 GMT+0000 (Coordinated Universal Time)

1 40305U 14071A 24345.81852667 .02688334 26416-5 96206-3 0 9990 2 40305 97.6696 347.7610 0003792 146.2942 294.5509 16.24985717560087

Satellite not in orbit

YAOGAN-23